Temp
72 72 71 71 72 72 72 72 71 71 72 72 72 71 69 69 79 79 79 82 75 76 75 75 75 75 76 76 76 75 75 75 75
71 71 71 71 71 71 71 71 71 71 71 71 70 69 68 76 78 79 78 78 75 75 75 75 75 75 75 75 75 75 75 75 75
71 71 70 70 70 70 70 70 70 69 70 69 69 67 66 76 77 77 78 72 75 75 74 74 74 74 74 74 74 74 74 74 73
69 69 69 69 69 69 69 69 68 68 68 68 67 65 65 77 77 77 80 71 75 75 74 74 74 73 73 73 73 73 73 73 72
67 69 67 67 67 67 67 67 66 65 65 65 65 64 66 77 76 78 75 72 74 73 73 72 72 72 72 72 72 72 72 72 72
71 63 64 65 65 65 66 65 64 63 64 64 63 64 76 76 76 77 69 71 73 72 72 71 71 71 71 71 71 71 71 71 70
70 64 61 62 62 63 63 63 65 69 73 74 69 75 74 75 75 75 68 70 71 72 71 71 71 71 71 71 70 70 70 70 69
73 73 72 72 64 71 71 72 72 71 72 72 74 73 73 75 75 70 66 68 70 70 71 70 70 70 70 70 69 69 69 69 69
72 72 71 71 71 70 70 72 71 71 72 72 72 72 72 74 74 70 63 66 68 69 69 70 70 69 70 69 69 68 68 68 68
72 71 71 70 71 70 70 71 71 71 71 72 71 71 72 73 74 74 62 64 66 67 68 68 68 69 69 68 68 67 67 67 67
70 70 69 69 69 69 69 69 68 69 70 70 71 71 71 70 71 73 71 62 63 65 66 66 66 66 67 67 67 67 67 67 66
70 69 69 68 68 67 68 68 68 68 69 69 70 69 70 70 70 71 71 69 60 62 64 64 65 65 66 66 66 66 66 65 65
70 70 69 68 68 67 67 66 66 66 66 67 68 68 68 67 69 70 70 70 70 63 61 61 62 63 64 65 66 66 66 65 65
70 69 68 68 67 67 65 66 64 64 65 65 66 65 66 67 69 68 68 68 67 67 60 58 58 59 62 63 64 65 65 65 65
68 69 67 67 66 66 65 64 65 63 62 64 65 65 66 67 67 67 68 67 65 65 64 65 65 58 59 61 62 63 64 65 65
67 68 67 67 65 63 63 63 62 63 63 63 66 66 66 66 67 67 67 64 64 64 64 64 64 64 60 60 59 61 62 64 64
66 66 66 65 64 63 62 61 62 62 61 58 60 59 63 66 65 65 65 63 64 63 63 63 62 62 62 59 56 57 59 61 62
64 64 64 64 64 63 61 60 58 58 60 58 57 56 56 57 63 62 63 61 62 63 62 61 61 60 60 58 58 56 57 60 62
63 62 62 63 63 61 61 61 59 58 57 59 59 58 56 53 53 63 62 61 60 60 60 60 60 59 59 55 54 54 55 58 60
61 61 61 61 61 60 60 59 59 59 58 57 57 56 57 55 52 50 56 60 61 60 59 59 59 58 58 58 55 53 54 56 57
MSLP
1019.32 1019.30 1019.27 1019.18 1019.05 1018.87 1018.74 1018.64 1018.54 1018.40 1018.14 1017.99 1017.86 1017.71 1017.57 1017.15 1016.49 1016.24 1016.06 1015.46 1016.12 1016.02 1016.05 1016.10 1016.06 1016.08 1016.00 1015.88 1015.70 1015.68 1015.58 1015.53 1015.57
1019.52 1019.50 1019.45 1019.32 1019.23 1019.14 1018.98 1018.90 1018.76 1018.59 1018.42 1018.21 1018.04 1017.90 1017.65 1016.93 1016.60 1016.39 1016.33 1016.38 1016.41 1016.34 1016.32 1016.29 1016.25 1016.22 1016.14 1016.09 1015.92 1015.67 1015.60 1015.58 1015.54
1019.74 1019.66 1019.66 1019.61 1019.53 1019.40 1019.26 1019.13 1018.98 1018.77 1018.57 1018.39 1018.19 1018.04 1017.72 1016.84 1016.68 1016.64 1016.51 1016.96 1016.63 1016.51 1016.53 1016.55 1016.44 1016.31 1016.22 1016.22 1016.16 1016.09 1015.84 1015.59 1015.61
1020.02 1019.99 1019.92 1019.85 1019.75 1019.62 1019.50 1019.39 1019.25 1019.09 1018.85 1018.68 1018.52 1018.34 1018.03 1016.96 1016.95 1016.79 1016.54 1017.10 1016.72 1016.58 1016.58 1016.60 1016.54 1016.40 1016.35 1016.31 1016.29 1016.20 1016.14 1015.94 1015.73
1020.32 1020.14 1020.24 1020.11 1020.01 1019.92 1019.76 1019.65 1019.50 1019.36 1019.15 1018.93 1018.71 1018.43 1017.93 1017.13 1017.12 1016.93 1017.11 1017.19 1016.74 1016.72 1016.70 1016.67 1016.65 1016.60 1016.56 1016.47 1016.31 1016.23 1016.18 1016.21 1015.99
1020.15 1020.68 1020.55 1020.46 1020.32 1020.20 1020.02 1019.87 1019.71 1019.50 1019.20 1019.08 1018.87 1018.41 1017.67 1017.37 1017.26 1017.11 1017.77 1017.39 1017.04 1016.96 1016.84 1016.84 1016.79 1016.65 1016.49 1016.44 1016.34 1016.32 1016.33 1016.27 1016.47
1020.48 1020.78 1020.84 1020.68 1020.57 1020.42 1020.25 1020.07 1019.77 1019.21 1018.79 1018.55 1018.52 1018.07 1017.90 1017.64 1017.54 1017.47 1018.00 1017.65 1017.34 1017.12 1017.07 1016.92 1016.90 1016.75 1016.55 1016.37 1016.39 1016.44 1016.38 1016.49 1016.45
1020.30 1020.28 1020.27 1020.27 1020.48 1019.98 1019.85 1019.52 1019.41 1019.20 1019.01 1018.69 1018.35 1018.29 1018.01 1017.70 1017.71 1018.05 1018.29 1017.96 1017.65 1017.37 1017.19 1017.13 1016.99 1016.93 1016.71 1016.51 1016.54 1016.53 1016.55 1016.56 1016.59
1020.43 1020.32 1020.45 1020.34 1020.26 1020.06 1019.92 1019.60 1019.43 1019.12 1018.92 1018.73 1018.48 1018.27 1018.14 1017.90 1017.82 1018.05 1018.53 1018.30 1018.04 1017.78 1017.59 1017.38 1017.19 1017.11 1017.01 1016.87 1016.80 1016.80 1016.71 1016.67 1016.54
1020.56 1020.59 1020.52 1020.50 1020.42 1020.26 1019.94 1019.68 1019.41 1019.16 1019.04 1018.76 1018.59 1018.39 1018.23 1018.07 1017.97 1017.90 1018.65 1018.57 1018.35 1018.08 1017.84 1017.67 1017.59 1017.43 1017.25 1017.15 1017.17 1017.06 1016.83 1016.76 1016.67
1020.64 1020.67 1020.74 1020.68 1020.62 1020.44 1020.18 1019.97 1019.73 1019.38 1019.18 1018.81 1018.54 1018.40 1018.27 1018.24 1018.07 1017.95 1018.11 1018.79 1018.76 1018.52 1018.30 1018.13 1017.89 1017.72 1017.60 1017.35 1017.31 1017.29 1017.00 1016.93 1016.93
1020.64 1020.70 1020.71 1020.84 1020.75 1020.55 1020.28 1020.06 1019.74 1019.43 1019.19 1018.81 1018.55 1018.46 1018.33 1018.25 1018.21 1018.13 1018.18 1018.32 1018.86 1018.91 1018.67 1018.56 1018.49 1018.21 1017.82 1017.54 1017.31 1017.22 1017.34 1017.35 1017.17
1020.68 1020.57 1020.62 1020.73 1020.63 1020.53 1020.25 1020.11 1019.84 1019.57 1019.31 1018.96 1018.68 1018.61 1018.57 1018.51 1018.43 1018.39 1018.35 1018.39 1018.38 1018.83 1019.09 1019.07 1018.94 1018.69 1018.37 1017.90 1017.51 1017.30 1017.05 1016.97 1017.05
1020.61 1020.53 1020.64 1020.73 1020.53 1020.37 1020.32 1020.07 1020.09 1019.70 1019.43 1019.14 1018.88 1018.93 1018.83 1018.70 1018.56 1018.53 1018.59 1018.64 1018.68 1018.62 1019.02 1019.09 1019.04 1018.93 1018.70 1018.37 1017.95 1017.57 1017.29 1017.01 1016.73
1020.59 1020.62 1020.61 1020.59 1020.40 1020.31 1020.28 1020.22 1020.10 1020.09 1019.81 1019.32 1018.92 1018.93 1018.88 1018.72 1018.64 1018.61 1018.64 1018.72 1018.80 1018.79 1018.83 1018.74 1018.56 1018.88 1018.73 1018.55 1018.23 1017.88 1017.51 1017.10 1016.76
1020.56 1020.59 1020.64 1020.61 1020.53 1020.56 1020.56 1020.47 1020.30 1019.90 1019.94 1019.15 1018.68 1018.76 1018.93 1018.87 1018.82 1018.76 1018.74 1018.92 1019.04 1019.06 1018.95 1018.76 1018.58 1018.37 1018.52 1018.33 1018.30 1018.00 1017.54 1017.14 1016.82
1020.52 1020.56 1020.65 1020.71 1020.65 1020.66 1020.70 1020.67 1020.36 1020.26 1020.46 1020.03 1019.38 1018.56 1018.46 1018.69 1018.91 1019.02 1019.01 1019.07 1019.07 1018.88 1018.91 1018.85 1018.62 1018.52 1018.25 1018.22 1018.31 1018.04 1017.70 1017.37 1016.89
1020.54 1020.59 1020.66 1020.75 1020.76 1020.72 1020.81 1020.87 1020.80 1020.48 1020.52 1020.68 1020.32 1019.37 1018.89 1019.07 1018.92 1019.12 1019.20 1019.20 1018.98 1018.72 1018.77 1018.64 1018.54 1018.57 1018.39 1018.28 1017.99 1018.10 1017.81 1017.28 1016.86
1020.55 1020.64 1020.73 1020.75 1020.83 1020.92 1020.97 1021.12 1021.07 1021.00 1020.67 1020.81 1020.93 1020.89 1020.77 1019.93 1019.00 1018.76 1018.94 1019.15 1018.97 1018.93 1018.68 1018.54 1018.48 1018.53 1018.41 1018.60 1018.56 1018.31 1017.80 1017.38 1017.02
1020.54 1020.66 1020.80 1020.92 1021.01 1021.10 1021.11 1021.14 1021.15 1021.20 1021.08 1021.02 1020.97 1020.95 1020.85 1020.82 1020.34 1019.17 1018.64 1018.82 1018.85 1018.98 1018.79 1018.60 1018.33 1018.46 1018.31 1018.31 1018.47 1018.54 1018.10 1017.67 1017.01
Wind_Speed
12 12 11 10 10 11 10 11 11 10 10 9 10 10 9 8 4 4 5 5 8 9 9 8 8 7 8 8 7 6 5 4 6
11 11 11 10 10 11 12 11 11 10 10 10 10 10 8 6 4 4 5 9 9 9 9 8 7 8 8 9 9 8 7 6 6
10 10 10 10 10 10 10 10 10 10 11 11 10 10 10 2 4 4 3 9 8 7 7 7 7 8 7 7 9 10 9 7 6
10 11 11 10 10 10 10 10 10 10 10 10 10 9 8 6 4 4 3 10 8 7 7 7 8 8 7 7 7 8 8 8 9
9 6 10 10 10 10 10 10 10 9 9 10 10 9 7 6 3 2 6 8 8 6 6 7 7 8 8 7 7 6 6 9 10
6 9 9 9 9 9 9 9 8 7 2 7 9 9 4 5 4 3 9 9 6 4 4 6 7 7 5 6 4 5 7 9 11
5 6 7 7 6 6 6 7 5 4 5 4 2 4 5 4 3 4 9 9 8 7 7 5 5 7 9 4 1 3 5 7 8
3 3 3 3 3 4 4 4 5 7 5 4 4 4 4 3 2 6 9 9 9 8 5 7 6 7 11 6 6 7 6 6 9
3 3 3 3 4 5 5 4 5 6 6 6 6 6 4 3 2 5 7 8 8 8 8 8 8 9 9 5 7 7 6 6 9
2 3 3 3 3 4 4 5 5 6 7 6 6 6 6 5 3 2 5 7 7 7 8 8 8 9 8 8 7 5 7 9 7
2 2 3 3 4 4 5 5 6 6 6 7 7 7 5 5 4 2 2 5 7 7 7 7 7 8 9 9 9 10 9 8 8
2 2 2 3 3 5 5 5 5 5 5 7 6 5 6 4 4 3 3 2 4 6 7 7 8 7 7 7 7 7 8 9 9
2 2 2 2 3 4 4 4 5 5 5 6 5 5 5 4 3 2 2 1 2 3 7 8 8 9 9 8 7 7 7 8 9
1 1 2 2 2 3 4 4 5 5 6 6 5 4 4 2 1 2 2 2 3 3 3 4 5 8 10 11 11 11 10 10 9
3 1 1 2 2 3 3 5 4 4 6 5 4 2 2 1 2 2 1 2 3 4 5 5 3 5 10 12 13 14 14 13 11
4 1 1 1 2 3 4 4 5 4 7 4 2 1 1 2 3 3 2 2 3 4 4 4 4 5 9 10 13 15 15 15 14
3 3 2 1 1 1 3 4 3 3 6 5 3 3 3 2 3 2 1 2 2 4 5 8 7 6 6 6 10 11 12 14 15
5 4 3 2 1 1 2 3 4 3 3 5 4 3 3 7 2 2 3 4 5 6 7 6 7 7 6 6 3 12 13 14 14
5 4 3 2 1 0 1 1 2 2 3 0 2 2 3 4 5 1 2 5 8 7 5 7 5 5 3 2 4 11 12 13 15
4 4 4 3 1 1 0 1 0 1 2 2 1 1 2 4 4 8 5 7 4 7 7 6 4 3 2 1 6 12 14 15 15
Wind_Direction
67 61 53 47 40 34 35 34 30 26 24 23 14 15 6 304 18 3 27 14 42 65 69 60 49 30 21 15 8 330 309 299 263
65 59 49 49 41 36 32 28 25 25 23 24 23 18 2 349 22 27 20 32 19 43 43 33 22 12 9 2 12 16 9 343 308
61 60 53 45 40 34 29 25 23 21 18 16 17 15 353 21 36 22 12 15 1 11 16 9 1 359 6 10 3 3 14 20 357
65 57 49 43 38 33 29 23 20 17 17 14 12 6 348 333 23 351 339 4 345 1 6 4 359 6 24 17 4 350 347 12 31
68 63 50 47 41 34 32 24 20 13 13 12 8 347 277 12 0 5 28 345 350 17 35 32 16 5 4 358 355 353 30 14 18
80 60 53 50 44 37 31 26 18 353 34 17 358 306 3 358 1 353 5 349 348 8 5 20 3 346 342 343 18 43 37 31 8
70 74 60 54 38 41 26 20 4 334 3 14 273 7 353 353 355 39 359 356 348 349 350 2 347 334 339 304 75 31 42 27 14
83 75 60 40 19 25 11 15 19 13 5 1 6 357 346 345 350 55 6 359 351 352 353 18 19 15 19 32 41 49 21 32 15
81 64 51 36 21 17 10 4 3 -0 355 357 346 349 340 334 332 86 20 9 2 354 351 350 5 19 16 29 44 37 39 17 32
102 75 46 32 10 9 2 354 349 348 349 347 341 331 328 317 316 317 50 16 10 7 3 1 3 358 358 7 14 9 11 8 13
97 82 48 35 10 360 347 353 347 340 340 335 341 335 323 308 293 299 117 43 18 6 10 9 7 355 347 351 352 351 355 348 337
110 71 51 28 3 346 348 350 338 337 338 333 333 330 327 301 273 280 311 135 108 20 11 7 0 353 345 339 345 348 340 328 322
110 71 54 22 7 352 348 350 341 345 342 337 344 340 326 319 291 297 288 319 326 132 27 10 5 356 344 337 329 318 317 319 309
150 87 66 16 7 1 349 349 348 340 347 338 347 357 3 30 1 356 311 345 317 335 84 1 350 347 338 331 326 320 317 314 307
207 191 90 1 350 1 354 344 354 355 346 329 345 17 40 69 30 355 311 347 330 335 334 328 343 334 335 332 327 317 307 300 302
207 204 212 330 352 7 358 345 353 9 352 312 344 212 176 25 358 356 7 48 41 15 341 328 325 320 318 318 330 323 316 304 299
207 215 216 228 264 12 17 13 351 21 16 349 293 338 178 175 2 1 61 70 333 323 324 320 312 313 311 336 328 336 326 315 305
209 205 211 192 279 14 27 16 11 3 49 30 347 317 341 334 118 272 284 304 312 320 323 317 314 320 316 314 351 7 351 340 325
199 204 204 203 203 275 42 37 17 327 6 71 30 357 324 327 310 241 280 310 310 314 307 316 312 319 314 346 15 350 340 333 327
197 203 192 191 205 152 157 166 261 339 328 340 325 292 275 269 276 300 316 308 301 308 313 311 312 301 300 311 1 343 337 329 322